Location: Chandolas
(44.4033°N, 4.2533°E)
Time: 03:32:29
(UTC+00:00)

STARLINK-80 - Pass Details

Date: 15 November 2019
Orbit: 492 x 497 km, 53.0° (Epoch: 07 December)

Event Time Altitude Azimuth Distance (km) Brightness Sun altitude
Exits shadow 04:40:53 42° 198° (SSW) 720 4.0 -21.0°
Maximum altitude 04:41:54 59° 141° (SE) 577 3.8 -20.8°
Drops below altitude 10° 04:45:42 10° 62° (ENE) 1,700 6.9 -20.1°
Sets 04:47:54 0° 58° (ENE) 2,587 7.9 -19.7°
